Regional Weather Roundup
Issued by NWS

Home | Current Version | Previous Version | Text Only | Print | Product List | Glossary Off
Versions: 1 2 3 4 5 6 7 8 9 10 11 12 13 14 15 16 17 18 19 20 21 22 23 24 25 26 27 28 29 30 31 32 33 34 35 36 37 38 39 40 41 42 43 44 45 46 47 48 49 50

000
ASUS43 KLOT 021012
RWRIL

ILLINOIS REGIONAL WEATHER ROUNDUP
NATIONAL WEATHER SERVICE CHICAGO/ROMEOVILLE IL
500 AM CDT WED SEP 02 2015

NOTE: "FAIR" INDICATES FEW OR NO CLOUDS BELOW 12,000 FEET WITH NO
SIGNIFICANT WEATHER AND/OR OBSTRUCTIONS TO VISIBILITY.

* THESE STATIONS ARE NOT UNDER NWS QUALITY CONTROL. THEY ALSO MAY NOT
  REPORT WEATHER SUCH AS PRECIPITATION OR FOG.

ILZ001-002-007-009-015-016-024-021100-
NORTHWEST ILLINOIS

CITY           SKY/WX    TMP DP  RH WIND       PRES   REMARKS
MOLINE         CLEAR     71  66  84 CALM      30.01F
STERLING*      CLEAR    N/A N/A N/A CALM      30.01S
SAVANNA*       CLEAR     69  67  92 S3        30.02R
$$

ILZ003-004-008-010-011-017-018-021100-
NORTH CENTRAL ILLINOIS

CITY           SKY/WX    TMP DP  RH WIND       PRES   REMARKS
ROCKFORD       MOCLDY    69  66  90 S5        30.04R
FREEPORT*      CLEAR     70  67  91 SW8       30.04R
ROCHELLE*      CLEAR     65  64  99 CALM      30.04S FOG
DE KALB*       CLEAR     69  67  92 SW5       30.05R
PERU*          CLEAR     69  67  93 SW6       30.05R FOG
$$

ILZ005-006-012>014-019>023-021100-
NORTHEAST ILLINOIS

CITY           SKY/WX    TMP DP  RH WIND       PRES   REMARKS
CHICAGO-OHARE  PTCLDY    73  68  84 SW7       30.02S
CHICAGO-MIDWAY PTCLDY    74  68  81 SW7       30.03R
AURORA         CLEAR     66  65  96 CALM      30.05R FOG
LANSING*       CLEAR     70  67  90 SW5       30.04S
JOLIET*        CLEAR     68  68  99 CALM      30.04R FOG
WAUKEGAN       PTCLDY    73  68  84 SW3       30.01R
DUPAGE AIRPORT CLEAR     68  66  93 S3        30.03S FOG
KANKAKEE*      CLEAR     66  66  98 S5        30.06S FOG
WHEELING       CLOUDY    74  68  81 SW3       30.03S
MORRIS*        CLEAR     68  67  94 SW3       30.03S FOG
ROMEOVILLE*    CLEAR     69  66  92 CALM      30.04S
NORTHERLY ISL    N/A     75  67  76 SW6         N/A
$$

LMZ740>746-021100-
SOUTHERN LAKE MICHIGAN

STATION/POSITION SKY/WX   TEMP    WIND        PRES    VSBY  WAVE
                          AIR SEA DIR/SP/G                  HT/PER
                          (F)     (DEG/KT/KT) (MB)    (MI)  (FT/S)
SOUTHERN BUOY              72 70  200/  8/ 10 1015.5          1/ 4
WILMETTE HARBOR            69 60   50/  6/  8   N/A           0
HARRISON CRIB              72     170/  2/  6   N/A
BURNHAM HARBOR             75     240/  8/  9   N/A
CALUMET HARBOR             74     220/  3/  6   N/A
BURNS HARBOR               75     210/ 11/ 14 1017.6R
MICHIGAN CITY              74     180/  9/ 11   N/A
MICHIGAN CITY 6N           73 72  210/  8/ 10   N/A           1/ 3
ST. JOSEPH                 73 72  240/  8/  8   N/A           1/ 3
$$

ILZ025>027-034>036-040-047-049-050-058-095>099-021100-
WEST-CENTRAL ILLINOIS

CITY           SKY/WX    TMP DP  RH WIND       PRES   REMARKS
QUINCY         CLEAR     72  68  87 S6        30.04S
GALESBURG*     CLEAR     70  67  92 SE6       30.04S
MACOMB*        CLEAR     72  69  89 SW6       30.06S
JACKSONVILLE*  CLEAR     74  71  91 S5        30.06S
PITTSFIELD*    CLEAR     70  68  92 S3        30.08R
$$

ILZ028>032-037-038-041>044-048-051>054-059>061-021100-
CENTRAL ILLINOIS

CITY           SKY/WX    TMP DP  RH WIND       PRES   REMARKS
PONTIAC        CLEAR     72  71  96 S6        30.06S
BLOOMINGTON    CLEAR     71  70  97 SW7       30.08R
DECATUR        CLEAR     71  67  87 SW5       30.08R
PEORIA         CLEAR     72  68  87 S5        30.05S FOG
LACON*         CLEAR     69  67  92 CALM      30.04R
LINCOLN*       CLEAR     69  67  92 CALM      30.07R FOG
SPRINGFIELD    CLEAR     72  69  90 SW5       30.07R
TAYLORVILLE    CLEAR     68  66  94 CALM      30.08R
$$

ILZ033-039-045-046-055>057-062-063-021100-
EAST-CENTRAL ILLINOIS

CITY           SKY/WX    TMP DP  RH WIND       PRES   REMARKS
CHAMPAIGN      CLEAR     68  67  96 S3        30.09R FOG
RANTOUL*       CLEAR     71  69  94 SW3       30.08S
MATTOON        HAZE      72  67  84 SW5       30.08R VSB 1
PARIS*         CLEAR     65  64  99 CALM      30.10R FOG
$$

ILZ079-100>102-021100-
SOUTHWEST ILLINOIS

CITY           SKY/WX    TMP DP  RH WIND       PRES   REMARKS
ALTON          CLEAR     69  67  95 CALM      30.08R
BELLEVILLE     CLEAR     69  69 100 CALM      30.07R FOG
CAHOKIA*       CLEAR     70  67  90 CALM      30.08R
SPARTA*        CLEAR     68  67  95 CALM      30.09S
$$

ILZ064>066-069>071-074>076-080>082-084>086-088>090-092>094-021100-
SOUTH-CENTRAL ILLINOIS

CITY           SKY/WX    TMP DP  RH WIND       PRES   REMARKS
CARBONDALE     FOG       66  65  96 CALM      30.09R VSB 3/4
CAIRO*         PTCLDY    66  66 100 CALM      30.08S FOG
EFFINGHAM*     CLEAR     67  65  92 CALM      30.10R FOG
MARION         CLEAR     72  70  94 CALM      30.09S
MT. VERNON       N/A     64  61  88 CALM      30.09S VSB 1/4
CENTRALIA*     CLEAR     68  67  99 S3        30.07R
SALEM*         CLEAR     69  67  93 CALM      30.08S
METROPOLIS*    MOCLDY    66  66 100 CALM      30.09S FOG
$$

ILZ067-068-072-073-078-083-087-091-021100-
SOUTHEAST ILLINOIS

CITY           SKY/WX    TMP DP  RH WIND       PRES   REMARKS
LAWRENCEVILLE  FOG       66  65  96 CALM      30.09S VSB 1
FLORA*         CLEAR     65  65  97 SE3       30.08S FOG
FAIRFIELD*     CLEAR     66  66  99 CALM      30.08R FOG
HARRISBURG*    CLOUDY    65  65 100 CALM      30.09S FOG
ROBINSON*      CLEAR     65  64  97 CALM      30.09S FOG
CARMI*           N/A     64  64  99 CALM      30.08S FOG
$$

ABBREVIATIONS USED IN REMARKS
   TC - TEMPERATURE IN CELSIUS
  WCI - WIND CHILL INDEX
   HX - HEAT INDEX
  VSB - VISIBILITY
$$



USA.gov is the U.S. government's official web portal to all federal, state and local government web resources and services.